E1763 Weather Reports


time (UTC)temp
F
wind
direction
speed
knots
gust
knots
rain 1hr
in
rain 24hr
in
rain mn
in
humidity
%
barometer
mb
20260509141558 47 86 0.0 0.0 0.00 0.00 0.00 96 1011.8
20260509134555 47 47 0.0 0.0 0.00 0.00 0.00 96 1011.4
20260509133055 47 320 0.0 0.0 0.00 0.00 0.00 96 1011.2
20260509131557 46 22 0.0 0.0 0.00 0.00 0.00 96 1011.1
20260509130105 46 22 0.0 0.0 0.00 0.00 0.00 96 1011.1
20260509124556 46 22 0.0 0.0 0.00 0.01 0.00 96 1011.0
20260509123053 47 22 0.0 0.0 0.00 0.01 0.00 96 1010.9
20260509121604 47 22 0.0 0.0 0.00 0.01 0.00 96 1011.0
20260509120049 47 22 0.0 0.0 0.00 0.01 0.00 96 1010.9
20260509114553 47 22 0.0 0.0 0.00 0.01 0.00 96 1010.9
20260509113055 48 22 0.0 0.0 0.00 0.01 0.00 96 1010.8
20260509111543 48 22 0.0 0.0 0.00 0.01 0.00 96 1010.9
20260509110042 48 22 0.0 0.0 0.00 0.01 0.00 96 1010.9
20260509104540 49 26 0.0 0.0 0.00 0.01 0.00 96 1011.0
20260509103045 49 39 0.0 0.0 0.00 0.01 0.00 96 1010.9
20260509101556 49 55 0.0 0.0 0.00 0.01 0.00 96 1011.0
20260509100136 49 23 0.0 0.0 0.00 0.01 0.00 96 1011.0
20260509094538 48 51 0.0 0.0 0.00 0.01 0.00 95 1011.0
20260509093033 49 37 0.0 0.0 0.00 0.01 0.00 95 1011.2
20260509091532 49 37 0.0 0.0 0.00 0.01 0.00 95 1011.2
20260509090038 49 37 0.0 0.0 0.00 0.01 0.00 95 1011.1
20260509084529 49 37 0.0 0.0 0.00 0.01 0.00 95 1011.2
20260509083038 49 24 0.0 0.0 0.00 0.01 0.00 95 1011.4
20260509081529 49 24 0.0 0.0 0.00 0.01 0.00 95 1011.5
20260509080025 49 16 0.0 0.0 0.00 0.01 0.00 95 1011.6
20260509074524 49 49 0.0 0.0 0.00 0.01 0.00 95 1011.7
20260509073029 50 50 0.0 0.0 0.00 0.01 0.00 94 1011.7
20260509071528 50 85 0.0 0.0 0.00 0.01 0.00 94 1011.7
20260509070019 50 47 0.0 0.0 0.00 0.01 0.00 94 1011.7
20260509064517 50 65 0.0 0.0 0.00 0.01 0.01 94 1011.9
20260509063022 50 13 0.0 0.0 0.00 0.01 0.01 94 1011.9
20260509061520 50 180 0.0 0.0 0.00 0.01 0.01 94 1012.2
20260509060013 51 180 0.0 0.0 0.00 0.01 0.01 94 1012.4
20260509054513 51 180 0.0 0.0 0.00 0.01 0.01 94 1012.5
20260509053016 51 180 0.0 0.0 0.00 0.01 0.01 93 1012.6
20260509051512 51 192 0.0 0.0 0.00 0.01 0.01 93 1012.5
20260509050017 51 184 0.0 0.0 0.00 0.01 0.01 93 1012.4
20260509044510 51 181 0.0 0.0 0.00 0.01 0.01 92 1012.6
20260509043010 51 187 0.0 0.0 0.00 0.01 0.01 92 1012.5
20260509041510 51 264 0.0 0.0 0.00 0.01 0.01 91 1012.4
20260509040023 51 229 0.0 0.0 0.00 0.01 0.01 90 1012.4
20260509034508 52 229 0.0 0.0 0.00 0.01 0.01 89 1012.3
20260509033008 53 229 0.0 0.0 0.00 0.01 0.01 88 1012.3
20260509031607 53 229 0.0 0.0 0.00 0.01 0.01 87 1012.4
20260509030007 54 227 0.0 0.0 0.00 0.01 0.01 84 1012.4
20260509024508 57 210 0.0 0.0 0.00 0.01 0.01 81 1012.4
20260509023008 59 208 0.0 0.0 0.00 0.01 0.01 77 1012.2
20260509021505 61 257 0.0 0.0 0.00 0.01 0.01 76 1012.3
20260509020003 62 267 0.0 0.0 0.00 0.01 0.01 75 1012.4
20260509014502 61 247 0.0 0.0 0.00 0.01 0.01 74 1012.4
20260509013103 62 316 0.0 0.0 0.00 0.01 0.01 72 1012.4
20260509011601 63 304 0.0 0.0 0.00 0.01 0.01 70 1012.5
20260509010058 63 71 0.0 0.0 0.00 0.01 0.01 71 1012.6
20260509004608 64 28 0.0 0.0 0.00 0.01 0.01 69 1012.8
20260509003058 64 248 0.0 0.0 0.00 0.01 0.01 67 1012.7
20260509001555 65 5 0.0 0.0 0.00 0.01 0.01 69 1012.7
20260509000055 65 336 0.0 0.0 0.00 0.01 0.01 66 1012.7
20260508234553 64 315 0.0 0.0 0.00 0.01 0.01 69 1012.8
20260508233051 66 261 0.0 0.0 0.00 0.01 0.01 68 1012.9
20260508231550 65 360 0.0 0.0 0.00 0.01 0.01 68 1013.0
20260508230047 66 254 0.0 0.0 0.00 0.01 0.01 68 1013.2
20260508224606 65 24 0.0 0.0 0.00 0.01 0.01 70 1013.3
20260508223051 66 355 0.0 0.0 0.00 0.01 0.01 71 1013.4
20260508221542 67 318 0.0 0.0 0.00 0.01 0.01 69 1013.4
20260508220049 68 323 0.0 0.0 0.00 0.01 0.01 72 1013.5
20260508214539 67 250 0.0 0.0 0.00 0.01 0.01 73 1013.6
20260508213042 68 333 0.0 0.0 0.00 0.01 0.01 71 1013.6
20260508211537 68 262 0.0 0.0 0.00 0.01 0.01 70 1013.6
20260508210037 68 231 0.0 0.0 0.00 0.01 0.01 72 1013.8
20260508204535 67 216 0.0 0.0 0.00 0.01 0.01 69 1013.7
20260508203036 67 211 0.0 0.0 0.00 0.01 0.01 70 1013.8
20260508201533 68 263 0.0 0.0 0.00 0.01 0.01 71 1013.9
20260508200034 67 25 0.0 0.0 0.00 0.01 0.01 73 1013.9
20260508194536 67 194 0.0 0.0 0.00 0.01 0.01 78 1014.0
20260508193026 66 226 0.0 0.0 0.00 0.01 0.01 82 1014.2
20260508191529 63 350 0.0 0.0 0.00 0.01 0.01 82 1014.3
20260508190022 62 350 0.0 0.0 0.00 0.01 0.01 86 1014.5
20260508184521 60 19 0.0 0.0 0.00 0.01 0.01 91 1014.5
20260508183023 59 30 0.0 0.0 0.00 0.01 0.01 94 1014.7
20260508181514 57 248 0.0 0.0 0.00 0.01 0.01 96 1014.7
20260508180005 54 228 0.0 0.0 0.00 0.01 0.01 97 1014.7
20260508174502 53 323 0.0 0.0 0.00 0.01 0.01 97 1014.7
20260508173101 52 329 0.0 0.0 0.00 0.01 0.01 97 1014.8
20260508171557 52 202 0.0 0.0 0.00 0.01 0.01 97 1014.9
20260508170057 51 144 0.0 0.0 0.00 0.01 0.01 97 1014.9
20260508164556 51 272 0.0 0.0 0.00 0.01 0.01 97 1014.8
20260508163053 50 306 0.0 0.0 0.00 0.01 0.01 97 1014.8
20260508161558 51 233 0.0 0.0 0.00 0.01 0.01 97 1014.9
20260508160050 51 19 0.0 0.0 0.00 0.01 0.01 97 1014.7
20260508154607 51 266 0.0 0.0 0.00 0.01 0.01 97 1014.5
20260508153047 50 325 0.0 0.0 0.00 0.01 0.01 97 1014.4
20260508151550 50 20 0.0 0.0 0.00 0.01 0.01 97 1014.3
20260508150057 50 36 0.0 0.0 0.00 0.01 0.01 97 1014.3
20260508144546 50 360 0.0 0.0 0.00 0.01 0.01 97 1014.2
20260508143141 50 346 0.0 0.0 0.00 0.01 0.01 97 1014.0